| time (UTC) | temp C | wind direction | speed KPH | gust KPH | rain 1hr cm | rain 24hr cm | rain mn cm | humidity % | barometer mb |
| 20260906121536 | 21 | 175 | 11.3 | 17.7 | 0.00 | 0.00 | 0.00 | 89 | 1017.0 |
| 20260906120045 | 21 | 165 | 8.0 | 16.1 | 0.00 | 0.00 | 0.00 | 91 | 1016.8 |
| 20260906114537 | 21 | 161 | 11.3 | 16.1 | 0.00 | 0.00 | 0.00 | 91 | 1016.6 |
| 20260906113031 | 21 | 154 | 4.8 | 11.3 | 0.00 | 0.00 | 0.00 | 91 | 1016.4 |
| 20260906111530 | 21 | 149 | 6.4 | 12.9 | 0.00 | 0.00 | 0.00 | 91 | 1016.5 |
| 20260906110039 | 21 | 154 | 4.8 | 11.3 | 0.00 | 0.00 | 0.00 | 91 | 1016.3 |
| 20260906104527 | 21 | 142 | 4.8 | 9.7 | 0.00 | 0.00 | 0.00 | 92 | 1016.1 |
| 20260906103025 | 21 | 136 | 4.8 | 9.7 | 0.00 | 0.00 | 0.00 | 93 | 1016.1 |
| 20260906101524 | 21 | 144 | 3.2 | 9.7 | 0.00 | 0.00 | 0.00 | 94 | 1015.8 |
| 20260906100022 | 21 | 151 | 3.2 | 11.3 | 0.00 | 0.00 | 0.00 | 94 | 1015.7 |
| 20260906094530 | 20 | 148 | 3.2 | 9.7 | 0.00 | 0.00 | 0.00 | 98 | 1015.8 |
| 20260906093022 | 20 | 53 | 3.2 | 8.0 | 0.00 | 0.00 | 0.00 | 98 | 1015.8 |
| 20260906091520 | 20 | 54 | 0.0 | 9.7 | 0.00 | 0.00 | 0.00 | 97 | 1015.7 |
| 20260906090019 | 20 | 58 | 1.6 | 4.8 | 0.00 | 0.00 | 0.00 | 97 | 1015.7 |
| 20260906084519 | 20 | 35 | 0.0 | 6.4 | 0.00 | 0.00 | 0.00 | 97 | 1015.7 |
| 20260906083017 | 20 | 36 | 0.0 | 6.4 | 0.00 | 0.00 | 0.00 | 97 | 1015.6 |
| 20260906081536 | 20 | 26 | 1.6 | 6.4 | 0.00 | 0.00 | 0.00 | 97 | 1015.6 |
| 20260906080017 | 20 | 15 | 1.6 | 4.8 | 0.00 | 0.00 | 0.00 | 96 | 1015.4 |
| 20260906074513 | 20 | 51 | 0.0 | 4.8 | 0.00 | 0.00 | 0.00 | 96 | 1015.3 |
| 20260906073011 | 20 | 45 | 0.0 | 8.0 | 0.00 | 0.00 | 0.00 | 96 | 1015.5 |
| 20260906071511 | 20 | 39 | 0.0 | 4.8 | 0.00 | 0.00 | 0.00 | 95 | 1015.4 |
| 20260906070010 | 20 | 36 | 0.0 | 9.7 | 0.00 | 0.00 | 0.00 | 95 | 1015.4 |
| 20260906064508 | 21 | 11 | 3.2 | 9.7 | 0.00 | 0.00 | 0.00 | 94 | 1015.5 |
| 20260906063008 | 21 | 40 | 0.0 | 8.0 | 0.00 | 0.00 | 0.00 | 94 | 1015.4 |
| 20260906061507 | 21 | 63 | 1.6 | 9.7 | 0.00 | 0.00 | 0.00 | 94 | 1015.4 |
| 20260906060001 | 21 | 82 | 0.0 | 6.4 | 0.00 | 0.00 | 0.00 | 94 | 1015.4 |
| 20260906054600 | 21 | 85 | 4.8 | 12.9 | 0.00 | 0.00 | 0.00 | 94 | 1015.4 |
| 20260906053104 | 21 | 76 | 11.3 | 16.1 | 0.00 | 0.00 | 0.00 | 94 | 1015.2 |
| 20260906051557 | 21 | 91 | 8.0 | 16.1 | 0.00 | 0.00 | 0.00 | 94 | 1015.1 |
| 20260906050112 | 21 | 67 | 11.3 | 16.1 | 0.00 | 0.00 | 0.00 | 94 | 1015.0 |
| 20260906044554 | 21 | 76 | 8.0 | 16.1 | 0.00 | 0.00 | 0.00 | 95 | 1014.9 |
| 20260906043051 | 21 | 91 | 11.3 | 17.7 | 0.00 | 0.00 | 0.00 | 95 | 1014.8 |
| 20260906041550 | 21 | 94 | 11.3 | 17.7 | 0.00 | 0.00 | 0.00 | 96 | 1014.6 |
| 20260906034559 | 21 | 86 | 12.9 | 22.5 | 0.00 | 0.00 | 0.00 | 95 | 1014.6 |
| 20260906033048 | 21 | 90 | 14.5 | 20.9 | 0.00 | 0.00 | 0.00 | 96 | 1014.5 |
| 20260906031551 | 21 | 76 | 12.9 | 20.9 | 0.00 | 0.00 | 0.00 | 96 | 1014.5 |
| 20260906030046 | 21 | 98 | 12.9 | 20.9 | 0.00 | 0.00 | 0.00 | 96 | 1014.6 |
| 20260906024546 | 21 | 82 | 14.5 | 20.9 | 0.00 | 0.00 | 0.00 | 97 | 1014.5 |
| 20260906023050 | 21 | 76 | 17.7 | 22.5 | 0.00 | 0.00 | 0.00 | 98 | 1014.5 |
| 20260906021554 | 21 | 69 | 12.9 | 20.9 | 0.00 | 0.00 | 0.00 | 98 | 1014.6 |
| 20260906020053 | 21 | 40 | 11.3 | 20.9 | 0.00 | 0.00 | 0.00 | 97 | 1014.6 |
| 20260906014552 | 21 | 86 | 16.1 | 24.1 | 0.00 | 0.00 | 0.00 | 97 | 1014.6 |
| 20260906013043 | 21 | 67 | 12.9 | 22.5 | 0.00 | 0.00 | 0.00 | 97 | 1014.6 |
| 20260906011541 | 21 | 67 | 12.9 | 19.3 | 0.00 | 0.00 | 0.00 | 98 | 1014.4 |
| 20260906010039 | 21 | 57 | 14.5 | 24.1 | 0.00 | 0.00 | 0.00 | 98 | 1014.1 |
| 20260906004539 | 21 | 71 | 17.7 | 24.1 | 0.00 | 0.00 | 0.00 | 98 | 1014.0 |
| 20260906003043 | 21 | 74 | 19.3 | 25.7 | 0.00 | 0.00 | 0.00 | 96 | 1014.0 |
| 20260906001538 | 21 | 57 | 20.9 | 29.0 | 0.00 | 0.00 | 0.00 | 96 | 1014.0 |
| 20260906000037 | 21 | 82 | 20.9 | 29.0 | 0.00 | 0.00 | 0.00 | 96 | 1014.1 |
| 20260905234536 | 21 | 73 | 22.5 | 29.0 | 0.00 | 0.00 | 0.00 | 96 | 1014.0 |
| 20260905233041 | 21 | 88 | 22.5 | 30.6 | 0.00 | 0.00 | 0.00 | 96 | 1014.0 |
| 20260905231535 | 21 | 74 | 19.3 | 25.7 | 0.00 | 0.00 | 0.00 | 96 | 1013.9 |
| 20260905230033 | 21 | 82 | 14.5 | 25.7 | 0.00 | 0.00 | 0.00 | 96 | 1013.9 |
| 20260905224533 | 21 | 69 | 19.3 | 29.0 | 0.00 | 0.00 | 0.00 | 95 | 1013.8 |
| 20260905223038 | 21 | 77 | 20.9 | 25.7 | 0.00 | 0.00 | 0.00 | 96 | 1013.9 |
| 20260905221542 | 21 | 51 | 17.7 | 25.7 | 0.00 | 0.00 | 0.00 | 96 | 1013.8 |
| 20260905220030 | 21 | 71 | 20.9 | 30.6 | 0.00 | 0.00 | 0.00 | 96 | 1013.5 |
| 20260905214527 | 21 | 68 | 19.3 | 25.7 | 0.00 | 0.00 | 0.00 | 96 | 1013.4 |
| 20260905213027 | 22 | 74 | 11.3 | 19.3 | 0.00 | 0.00 | 0.00 | 97 | 1013.1 |
| 20260905211540 | 22 | 42 | 8.0 | 14.5 | 0.00 | 0.00 | 0.00 | 97 | 1013.0 |
| 20260905210025 | 22 | 49 | 8.0 | 12.9 | 0.00 | 0.00 | 0.00 | 97 | 1013.0 |
| 20260905204524 | 22 | 59 | 3.2 | 14.5 | 0.00 | 0.00 | 0.00 | 98 | 1013.0 |
| 20260905203030 | 22 | 76 | 11.3 | 16.1 | 0.00 | 0.00 | 0.00 | 97 | 1013.0 |
| 20260905201525 | 22 | 73 | 11.3 | 14.5 | 0.00 | 0.00 | 0.00 | 96 | 1013.1 |
| 20260905200033 | 22 | 84 | 9.7 | 14.5 | 0.00 | 0.00 | 0.00 | 97 | 1013.0 |
| 20260905194523 | 22 | 76 | 4.8 | 9.7 | 0.00 | 0.00 | 0.00 | 97 | 1013.2 |
| 20260905193023 | 22 | 76 | 6.4 | 14.5 | 0.00 | 0.00 | 0.00 | 97 | 1013.2 |
| 20260905191522 | 22 | 58 | 4.8 | 12.9 | 0.00 | 0.00 | 0.00 | 98 | 1013.2 |
| 20260905190022 | 21 | 55 | 8.0 | 12.9 | 0.00 | 0.00 | 0.00 | 98 | 1013.3 |
| 20260905184530 | 22 | 59 | 9.7 | 16.1 | 0.00 | 0.00 | 0.00 | 97 | 1013.4 |
| 20260905183020 | 22 | 74 | 12.9 | 17.7 | 0.00 | 0.00 | 0.00 | 97 | 1013.4 |
| 20260905181520 | 21 | 24 | 8.0 | 16.1 | 0.00 | 0.00 | 0.00 | 98 | 1013.5 |
| 20260905180020 | 21 | 64 | 11.3 | 20.9 | 0.00 | 0.00 | 0.00 | 98 | 1013.4 |
| 20260905174518 | 21 | 68 | 11.3 | 16.1 | 0.00 | 0.05 | 0.00 | 97 | 1013.3 |
| 20260905173018 | 21 | 64 | 9.7 | 14.5 | 0.00 | 0.05 | 0.00 | 97 | 1013.4 |
| 20260905171535 | 22 | 70 | 6.4 | 12.9 | 0.00 | 0.05 | 0.00 | 96 | 1013.4 |
| 20260905170020 | 22 | 59 | 6.4 | 11.3 | 0.00 | 0.05 | 0.00 | 97 | 1013.5 |
| 20260905164517 | 22 | 64 | 6.4 | 12.9 | 0.00 | 0.05 | 0.00 | 98 | 1013.6 |
| 20260905163018 | 21 | 58 | 6.4 | 14.5 | 0.00 | 0.05 | 0.00 | 98 | 1013.5 |
| 20260905161520 | 21 | 63 | 6.4 | 11.3 | 0.00 | 0.05 | 0.00 | 98 | 1013.5 |
| 20260905160026 | 21 | 67 | 8.0 | 16.1 | 0.00 | 0.05 | 0.00 | 98 | 1013.3 |
| 20260905154523 | 21 | 61 | 6.4 | 14.5 | 0.00 | 0.05 | 0.00 | 98 | 1013.3 |
| 20260905153012 | 21 | 58 | 8.0 | 16.1 | 0.00 | 0.05 | 0.00 | 98 | 1013.2 |
| 20260905151514 | 21 | 65 | 8.0 | 20.9 | 0.00 | 0.05 | 0.00 | 98 | 1013.0 |
| 20260905150007 | 21 | 73 | 8.0 | 27.4 | 0.00 | 0.05 | 0.00 | 98 | 1013.0 |
| 20260905144507 | 21 | 58 | 8.0 | 14.5 | 0.00 | 0.05 | 0.00 | 99 | 1012.9 |
| 20260905143006 | 21 | 69 | 11.3 | 20.9 | 0.00 | 0.05 | 0.00 | 99 | 1012.7 |
| 20260905141507 | 21 | 65 | 6.4 | 12.9 | 0.00 | 0.05 | 0.00 | 99 | 1012.6 |
| 20260905140007 | 21 | 54 | 6.4 | 11.3 | 0.00 | 0.05 | 0.00 | 99 | 1012.4 |
| 20260905134508 | 21 | 66 | 6.4 | 14.5 | 0.00 | 0.05 | 0.00 | 99 | 1012.5 |
| 20260905133005 | 21 | 75 | 8.0 | 16.1 | 0.00 | 0.05 | 0.00 | 99 | 1012.7 |
| 20260905131504 | 21 | 63 | 6.4 | 19.3 | 0.00 | 0.05 | 0.00 | 99 | 1012.6 |
| 20260905130100 | 21 | 65 | 4.8 | 8.0 | 0.00 | 0.05 | 0.00 | 99 | 1012.3 |
| 20260905124558 | 22 | 73 | 6.4 | 14.5 | 0.00 | 0.05 | 0.00 | 99 | 1012.1 |
| 20260905123056 | 22 | 47 | 4.8 | 12.9 | 0.00 | 0.05 | 0.00 | 99 | 1011.7 |